Weather History for FAUP - October, 2013

Change the Weather History Date:

Thursday, October 10, 2013

  Actual Average Record
Temperature  
Mean Temperature 78 °F -  
Max Temperature 100 °F 86 °F 100 °F (2001)
Min Temperature 56 °F 57 °F 42 °F (2012)
Cooling Degree Days 13    
Growing Degree Days 28 (Base 50)    
Moisture  
Dew Point 13 °F    
Average Humidity 8    
Maximum Humidity 16    
Minimum Humidity 4    
Precipitation  
Precipitation 0.00 in 0.00 in - ()
Sea Level Pressure  
Sea Level Pressure 30.02 in    
Wind  
Wind Speed 3 mph ()    
Max Wind Speed 9 mph    
Max Gust Speed -    
Visibility 12.7 miles    
Events      
Averages and records for this station are not official NWS values.
T = Trace of Precipitation, MM = Missing Value Source: Averaged Metar Reports

Daily Weather History Graph

Daily Weather History Graph

Search for Another Location

Airport or City:

Trip Planner

Search our weather history database for the weather conditions in past years. The results will help you decide how hot, cold, wet, or windy it might be!

Date:

Astronomy

Oct. 10, 2013 Rise Set
Actual Time 6:03 AM SAST 6:40 PM SAST
Civil Twilight 5:39 AM SAST 7:04 PM SAST
Nautical Twilight 5:11 AM SAST 7:32 PM SAST
Astronomical Twilight 4:43 AM SAST 8:01 PM SAST
Moon 10:17 AM SAST (10/10) No Moon Set
Length of Visible Light 13h 24m
Length of Day
12h 37m
Waxing Crescent, 33% of the Moon is Illuminated
Oct 10
Waxing Crescent
Oct 12
First Quarter
Oct 19
Full
Oct 27
Last Quarter
Nov 3
New

Hourly Weather History & Observations

Time (SAST) Temp. Dew Point Humidity Pressure Visibility Wind Dir Wind Speed Gust Speed Precip Events Conditions
12:00 AM 66.2 °F 5.0 °F 9% 30.04 in - WSW 2.3 mph - N/A   Unknown
1:00 AM 62.6 °F 6.8 °F 11% 30.04 in - SSW 3.5 mph - N/A   Clear
2:00 AM 61 °F 4 °F 4%  in 25 mi Calm Calm - -   Clear
2:00 AM 60.8 °F 5.0 °F 11% 30.04 in - North 1.2 mph - N/A   Clear
2:21 AM 64.4 °F 8.6 °F 11% 30.01 in - Calm Calm - N/A   Clear
3:00 AM 62.6 °F 8.6 °F 12% 30.04 in - North 3.5 mph - N/A   Clear
4:00 AM 60.8 °F 10.4 °F 14% 30.01 in - SSW 1.2 mph - N/A   Clear
5:00 AM 57 °F 7 °F 6%  in 25 mi West 3.5 mph - -   Clear
5:00 AM 57.2 °F 8.6 °F 14% 30.01 in - West 2.3 mph - N/A   Clear
6:00 AM 57.2 °F 10.4 °F 16% 30.04 in - West 2.3 mph - N/A   Clear
7:00 AM 60.8 °F 12.2 °F 15% 30.04 in - SSW 2.3 mph - N/A   Clear
7:17 AM 64.4 °F 14.0 °F 14% 30.06 in - Calm Calm - N/A   Clear
7:51 AM 68.0 °F 14.0 °F 12% 30.06 in - Calm Calm - N/A   Clear
8:00 AM 69 °F 13 °F 5%  in 6 mi Calm Calm - -   Haze
8:00 AM 68.0 °F 14.0 °F 12% 30.06 in - Calm Calm - N/A   Clear
8:11 AM 71.6 °F 17.6 °F 13% 30.06 in - WNW 8.1 mph - N/A   Clear
8:43 AM 78.8 °F 15.8 °F 9% 30.06 in - NNE 3.5 mph - N/A   Clear
9:00 AM 78.8 °F 15.8 °F 9% 30.06 in - ENE 4.6 mph - N/A   Clear
9:30 AM 82.4 °F 21.2 °F 10% 30.06 in - ESE 3.5 mph - N/A   Clear
10:00 AM 84.2 °F 19.4 °F 9% 30.09 in - SE 1.2 mph - N/A   Clear
10:44 AM 89.6 °F 19.4 °F 8% 30.06 in - North 2.3 mph - N/A   Clear
11:00 AM 91 °F 19 °F 4%  in 16 mi East 3.5 mph - -   Haze
11:00 AM 89.6 °F 19.4 °F 8% 30.06 in - East 3.5 mph - N/A   Clear
12:00 PM 93.2 °F 17.6 °F 6% 30.06 in - SSE 3.5 mph - N/A   Clear
1:00 PM 93.2 °F 14.0 °F 5% 30.01 in - WNW 5.8 mph - N/A   Clear
2:00 PM 98 °F 12 °F 4%  in 16 mi NNW 8.1 mph - -   Haze
2:00 PM 96.8 °F 12.2 °F 4% 30.01 in - NNW 6.9 mph - N/A   Clear
3:00 PM 96.8 °F 12.2 °F 4% 29.98 in - NW 9.2 mph - N/A   Clear
4:00 PM 98.6 °F 14.0 °F 5% 29.95 in - West 6.9 mph - N/A   Clear
5:00 PM 98 °F 12 °F 4%  in 25 mi WNW 8.1 mph - -  
5:00 PM 96.8 °F 12.2 °F 4% 29.95 in - WNW 8.1 mph - N/A   Clear
6:00 PM 96.8 °F 15.8 °F 5% 29.95 in - WNW 3.5 mph - N/A   Clear
7:00 PM 86.0 °F 17.6 °F 8% 29.98 in - NW 3.5 mph - N/A   Clear
8:00 PM 83 °F 16 °F 4%  in 25 mi North 3.5 mph - -  
8:00 PM 82.4 °F 17.6 °F 9% 29.98 in - North 3.5 mph - N/A   Clear
9:00 PM 78.8 °F 15.8 °F 9% 29.98 in - North 8.1 mph - N/A   Unknown
10:00 PM 75.2 °F 14.0 °F 10% 29.98 in - North 8.1 mph - N/A   Unknown
11:00 PM 75 °F 13 °F 4%  in - North 8.1 mph - -  
11:00 PM 73.4 °F 14.0 °F 10% 29.98 in - North 8.1 mph - N/A   Unknown